Skip Page Navigation
NASA JPL Caltech
NASA Logo - Jet Propulsion Laboratory + View the NASA Portal
+ Near-Earth Object (NEO) Program
Search JPL
JPL Home Earth Solar System Stars & Galaxies Technology
JPL Solar System Dynamics
BODIES ORBITS EPHEMERIDES TOOLS PHYSICAL DATA DISCOVERY FAQ SITE MAP
JPL Small-Body Database Browser
Search: [ help ]  
13089 (1992 PH2)
Classification: Main-belt Asteroid          SPK-ID: 2013089
Ephemeris | Orbit Diagram | Orbital Elements | Physical Parameters | Discovery Circumstances | Close-Approach Data ]

[ show orbit diagram ]
Orbital Elements at Epoch 2457000.5 (2014-Dec-09.0) TDB
Reference: JPL 6 (heliocentric ecliptic J2000)
 Element Value Uncertainty (1-sigma)   Units 
e .133977493542017 8.27e-08  
a 3.043529198802316 4.4632e-08 AU
q 2.635764785224838 2.6857e-07 AU
i 9.443250877735702 7.9261e-06 deg
node 271.3077146664006 5.1329e-05 deg
peri 68.63665352119776 5.9363e-05 deg
M 62.07538098407795 3.2515e-05 deg
tp 2456666.088249870529
(2014-Jan-08.58824987)
0.00017247 JED
period 1939.387695058826
5.31
4.266e-05
1.168e-07
d
yr
n .185625597665288 4.0832e-09 deg/d
Q 3.451293612379794 5.0612e-08 AU
  Orbit Determination Parameters
   # obs. used (total)      709  
   data-arc span      9554 days (26.16 yr)  
   first obs. used      1987-09-18  
   last obs. used      2013-11-14  
   planetary ephem.      DE431  
   SB-pert. ephem.      SB431-BIG16  
   condition code      0  
   fit RMS      .48893  
   data source      ORB  
   producer      Otto Matic  
   solution date      2014-Jun-09 20:33:14  

Additional Information
 Earth MOID = 1.64547 AU 
 T_jup = 3.205 
[ show covariance matrix ]

Ephemeris | Orbit Diagram | Orbital Elements | Physical Parameters | Discovery Circumstances | Close-Approach Data ]

Physical Parameter Table
Parameter Symbol Value Units Sigma Reference Notes
absolute magnitude H 13.0 mag n/a MPO275554  

13089 (1992 PH2)          Discovered 1992-Aug-02 by Holt, H. E. at Palomar (675)
Reference: 20000124/Numbers.arcLast Updated: 2004-04-19

[ show close-approach data ]
Alternate Designations
 1992 PH2 = 1987 SE21 = 1997 ND11 
Ephemeris | Orbit Diagram | Orbital Elements | Physical Parameters | Discovery Circumstances | Close-Approach Data ]
ABOUT SSD CREDITS/AWARDS PRIVACY/COPYRIGHT GLOSSARY LINKS
FirstGov 2014-Sep-02 21:19 UT
(server date/time)  
NASA Home Page
Site Manager:   Donald K. Yeomans
Webmaster  Alan B. Chamberlin